CZ-4 DEB, 28074

Orbit data source: Space-Track

CZ-4 DEB, 28074 is space debris in SSO originally from a launch on Thu, 14 Oct 1999 UTC launched from the Taiyaun Space Center, China (TSC). Debris objects in space refer to the collection of defunct objects orbiting the Earth. Examples of debris include non-operational satellites, rocket bodies, and fragments generated from explosions, collisions, or faulty payload assembly.

Loading next visibility...
Identifier
28074, 1999-057NE
Orbit
SSO
Country
Flag of CNCN / PRC
Related business
Manufacturer
Unknown
Mission
Spacecraft
Bus & Motor
Unknown
Mass
Unknown
Launch date (UTC)
1999-10-14 (26 years ago)
Launch vehicle
Unknown
Launch site
Taiyaun Space Center, China (TSC)
Object type
Payload
Rocket body
Debris
Shape & HBR
Unknown shape, 0.1 m
Radar Cross Section
Small (<0.1 m²)

Expand to show TLE details & history
Last TLE update: 1 day ago

TLE from 1 day ago
0 CZ-4 DEB
1 28074U 99057NE  25349.37604613  .00000203  00000-0  84587-4 0  9995
2 28074  98.8539  21.1352 0102779 185.4780 189.9711 14.34030224197150
Epoch: 2025-12-15T09:01Z
TLE epoch observation values (Epoch: 2025-12-15T09:01:30.385Z)
Latitude
15.03711°
Longitude
159.09737°
Altitude
852.994 km
Speed
7.39 km/s
True Right ascension
01h 14m 59s
True Declination
14° 57' 08"
Sunlit
Object was in full shadow at epoch
Visualization orbit readout
Latitude
Unknown
Longitude
Unknown
Altitude
Unknown
Speed
Unknown
Apparent Right ascension
Unknown
Apparent Declination
Unknown
Sunlit
N/A
Visualization observer readout
Local Sidereal Time
15:49:21
Azimuth
Unknown
Elevation
Unknown
Doppler factor
Unknown
Orbital elements
Apogee altitude
848.961 km
Perigee altitude
701.914 km
Semi-major axis
7,153.574 km
Eccentricity
0.01028
Inclination
98.8539°
RAAN
21.1352°
Arg. of periapsis
185.478°
True anomaly
189.76972°
Mean anomaly
189.9711°
Eccentric anomaly
189.87016°
Mean motion
3.58722 °/min
Orbital period
100.36 mins
BSTAR
0.000084587
Loading maneuver chart data...
Computing Atmospheric mass density...

Documentation

Showing up to 5 results
|